Easton, MD

6:07 PM EDT on September 19, 2017 (GMT -0400)
Easton / Newnam

Weather History for KESN - September, 2013

Change the Weather History Date:

Friday, September 27, 2013

  Actual Average Record
Temperature  
Mean Temperature 64 °F -  
Max Temperature 73 °F 78 °F 90 °F (1970)
Min Temperature 55 °F 58 °F 40 °F (1957)
Growing Degree Days 14 (Base 50)    
Moisture  
Dew Point 57 °F    
Average Humidity 89    
Maximum Humidity 100    
Minimum Humidity 50    
Precipitation  
Precipitation 0.00 in - - ()
Sea Level Pressure  
Sea Level Pressure 30.19 in    
Wind  
Wind Speed 1 mph (East)    
Max Wind Speed 9 mph    
Max Gust Speed -    
Visibility 10 miles    
Events      
Averages and records for this station are not official NWS values.
T = Trace of Precipitation, MM = Missing Value Source: NWS Daily Summary

Daily Weather History Graph

Daily Weather History Graph

Search for Another Location

Airport or City:

Trip Planner

Search our weather history database for the weather conditions in past years. The results will help you decide how hot, cold, wet, or windy it might be!

Date:

Astronomy

Sep. 27, 2013 Rise Set
Actual Time 6:56 AM EDT 6:52 PM EDT
Civil Twilight 6:30 AM EDT 7:19 PM EDT
Nautical Twilight 5:59 AM EDT 7:50 PM EDT
Astronomical Twilight 5:27 AM EDT 8:21 PM EDT
Moon No Moon Rise 2:26 PM EDT (9/27)
Length of Visible Light 12h 49m
Length of Day
11h 56m
Last Quarter, 45% of the Moon is Illuminated
Sep 27
Last Quarter
Oct 4
New
Oct 11
First Quarter
Oct 18
Full
Oct 26
Last Quarter

Hourly Weather History & Observations

Time (EDT) Temp. Dew Point Humidity Pressure Visibility Wind Dir Wind Speed Gust Speed Precip Events Conditions
12:12 AM 59.2 °F 59.2 °F 100% 30.11 in 10.0 mi Calm Calm - N/A   Clear
12:32 AM 58.1 °F 58.1 °F 100% 30.11 in 10.0 mi Calm Calm - N/A   Clear
12:53 AM 57.6 °F 57.6 °F 100% 30.12 in 10.0 mi Calm Calm - N/A   Clear
1:13 AM 56.7 °F 56.7 °F 100% 30.12 in 10.0 mi Calm Calm - N/A   Clear
1:33 AM 56.5 °F 56.5 °F 100% 30.12 in 10.0 mi Calm Calm - N/A   Scattered Clouds
1:53 AM 56.8 °F 56.8 °F 100% 30.13 in 10.0 mi Calm Calm - N/A   Scattered Clouds
2:13 AM 56.8 °F 56.8 °F 100% 30.13 in 10.0 mi Calm Calm - N/A   Mostly Cloudy
2:33 AM 56.5 °F 56.5 °F 100% 30.13 in 10.0 mi Calm Calm - N/A   Scattered Clouds
2:53 AM 56.7 °F 56.7 °F 100% 30.13 in 10.0 mi Calm Calm - N/A   Mostly Cloudy
3:13 AM 57.6 °F 57.6 °F 100% 30.13 in 10.0 mi Calm Calm - N/A   Overcast
3:33 AM 57.9 °F 57.9 °F 100% 30.13 in 10.0 mi Calm Calm - N/A   Mostly Cloudy
3:53 AM 57.7 °F 57.7 °F 100% 30.13 in 10.0 mi Calm Calm - N/A   Mostly Cloudy
4:13 AM 58.6 °F 58.6 °F 100% 30.13 in 10.0 mi Calm Calm - N/A   Mostly Cloudy
4:33 AM 58.5 °F 58.5 °F 100% 30.13 in 10.0 mi Calm Calm - N/A   Mostly Cloudy
4:53 AM 58.1 °F 58.1 °F 100% 30.14 in 10.0 mi Calm Calm - N/A   Scattered Clouds
5:13 AM 57.9 °F 57.9 °F 100% 30.15 in 10.0 mi Calm Calm - N/A   Mostly Cloudy
5:33 AM 57.6 °F 57.6 °F 100% 30.15 in 10.0 mi Calm Calm - N/A   Mostly Cloudy
5:53 AM 57.9 °F 57.9 °F 100% 30.16 in 10.0 mi Calm Calm - N/A   Mostly Cloudy
6:13 AM 57.9 °F 57.9 °F 100% 30.16 in 10.0 mi Calm Calm - N/A   Mostly Cloudy
6:33 AM 58.1 °F 58.1 °F 100% 30.17 in 10.0 mi Calm Calm - N/A   Overcast
6:45 AM 58.3 °F 58.3 °F 100% 30.18 in 10.0 mi Calm Calm - N/A   Overcast
6:53 AM 59.0 °F 59.0 °F 100% 30.18 in 10.0 mi Calm Calm - N/A   Mostly Cloudy
7:53 AM 59.0 °F 59.0 °F 100% 30.20 in 10.0 mi Calm Calm - N/A   Overcast
8:45 AM 62.6 °F 62.6 °F 100% 30.21 in 10.0 mi East 3.5 mph - N/A   Mostly Cloudy
9:45 AM 66.2 °F 64.4 °F 94% 30.23 in 10.0 mi SE 5.8 mph - N/A   Scattered Clouds
10:50 AM 69.8 °F 55.4 °F 60% 30.24 in 10.0 mi East 5.8 mph - N/A   Mostly Cloudy
11:45 AM 68.0 °F 55.4 °F 64% 30.24 in 10.0 mi East 8.1 mph - N/A   Overcast
12:45 PM 71.6 °F 55.4 °F 57% 30.24 in 10.0 mi East 4.6 mph - N/A   Overcast
1:55 PM 71.6 °F 55.4 °F 57% 30.21 in 10.0 mi East 9.2 mph - N/A   Mostly Cloudy
2:58 PM 71.6 °F 53.6 °F 53% 30.21 in 10.0 mi East 6.9 mph - N/A   Overcast
3:50 PM 73.4 °F 53.6 °F 50% 30.20 in 10.0 mi Calm Calm - N/A   Mostly Cloudy
4:52 PM 71.6 °F 53.6 °F 53% 30.21 in 10.0 mi East 5.8 mph - N/A   Overcast
6:50 PM 66.2 °F 53.6 °F 64% 30.22 in 10.0 mi Calm Calm - N/A   Mostly Cloudy
7:46 PM 64.4 °F 55.4 °F 73% 30.24 in 10.0 mi ESE 3.5 mph - N/A   Mostly Cloudy
8:54 PM 62.6 °F 55.4 °F 77% 30.25 in 10.0 mi Calm Calm - N/A   Clear
9:55 PM 60.4 °F 55.8 °F 85% 30.27 in 10.0 mi Calm Calm - N/A   Clear
10:15 PM 59.9 °F 55.6 °F 86% 30.27 in 10.0 mi Calm Calm - N/A   Clear
10:35 PM 59.2 °F 55.4 °F 87% 30.28 in 10.0 mi Calm Calm - N/A   Clear
10:55 PM 59.2 °F 55.6 °F 88% 30.28 in 10.0 mi Calm Calm - N/A   Clear
11:15 PM 57.6 °F 54.5 °F 90% 30.28 in 10.0 mi Calm Calm - N/A   Clear
11:35 PM 56.3 °F 56.3 °F 100% 30.28 in 10.0 mi Calm Calm - N/A   Clear
11:55 PM 55.6 °F 55.6 °F 100% 30.28 in 10.0 mi Calm Calm - N/A   Clear